Hourly Data Report for July 05, 2021

RANKIN INLET A
NUNAVUT
Current Station Operator: NAVCAN

62°48'38.000" N
92°06'53.000" W
32.30 m
2303405
71083
YRT

Download Data

Hourly Data (July 2021)
Hourly Data Report for July 5, 2021
TIME
LST
Temp Definition
°C
Dew Point Definition
°C
Rel Hum Definition
%
Precip. Amount Definition
mm

Wind Dir Definition
10's deg

Wind Spd Definition
km/h
Visibility Definition
km
Stn Press Definition
kPa
Hmdx Definition


Wind Chill Definition


Weather Definition


00:00 3.9 -0.1 75   20 7 24.1 101.93     Mainly Clear
01:00 3.1 0.0 80   23 8 24.1 101.91     LegendNANA
02:00 3.5 -0.3 76   17 8 48.3 101.93     LegendNANA
03:00 3.9 -0.4 74   18 9 48.3 101.93     Mainly Clear
04:00 4.0 0.3 77   20 8 48.3 101.94     LegendNANA
05:00 4.6 0.8 76   24 5 48.3 101.94     LegendNANA
06:00 5.8 1.7 75   27 7 48.3 101.96     Mainly Clear
07:00 6.8 3.1 77   36 16 48.3 102.01     LegendNANA
08:00 8.9 3.2 67   2 22 48.3 102.04     LegendNANA
09:00 9.9 0.6 52   2 25 48.3 102.07     Mostly Cloudy
10:00 10.6 1.1 52   1 26 48.3 102.07     LegendNANA
11:00 11.1 1.5 52   35 24 48.3 102.07     LegendNANA
12:00 11.8 1.6 49   35 25 48.3 102.06     Mostly Cloudy
13:00 12.0 1.2 48   1 28 48.3 102.07     LegendNANA
14:00 12.6 2.8 51   35 30 48.3 102.05     LegendNANA
15:00 12.3 1.1 46   36 18 48.3 102.06     Mainly Clear
16:00 13.3 1.2 44   34 19 48.3 102.06     LegendNANA
17:00 13.5 1.1 43   34 19 48.3 102.04     LegendNANA
18:00 13.6 1.0 42   33 24 24.1 102.04     Mainly Clear
19:00 13.2 1.3 44   33 20 24.1 102.00     LegendNANA
20:00 12.3 2.1 50   31 19 24.1 101.97     LegendNANA
21:00 11.4 3.1 57   30 20 24.1 101.97     Mostly Cloudy
22:00 9.9 3.2 63   30 18 24.1 101.92     LegendNANA
23:00 9.1 3.8 69   29 17 24.1 101.90     LegendNANA

Notes on Data Quality.

Legend

  • E = Estimated
  • M = Missing
  • NA = Not Available*
  • [empty] = Indicates an unobserved value
Date modified: